Back to catalog

DELTA 1 DEB

AlivePO
NORAD 21278·DEBRIS·🇺🇸 United States

Launched Jun 12, 1975 from Vandenberg Space Force Base

Loading…

Next Passes (next 24 hours)

TLE

FreshSource: Space-Track

Epoch: Sep 14, 2026, 09:13 UTC

1 21278U 75052P   26257.38468836  .00000028  00000-0  21157-3 0  9996
2 21278  99.8386  39.6950 0388233  38.0684 347.8087 12.77575110647946

Track DELTA 1 DEB in real time with AllMySat

Download on the App Store